[[{"header":{"parameterUnit":"m.s-1","parameterCategory":1,"la1":30.2991,"la2":30.254,"lo1":-89.0895,"lo2":-89.0444,"dy":0.0017,"dx":0.0017,"nx":28,"ny":28,"refTime":"2024-07-22T03:00:00:Z","depth":0,"parameterNumber":2,"parameterNumberName":"U-component_of_WINDS"},"data":[0,0,0,0,0,0,0,0,0,0,0,0,0,0,0,0,0,0,0,0,0,0,0,0,0,0,0,0,0,0,0,0,0,0,0,0,0,0,0,0,0,0,0,0,0,0,0,0,0,0,0,0,0,0,0,0,0,0,2.4033,2.4033,0,2.4075,2.4076,2.4076,2.4034,2.4032,2.4031,2.4029,2.4071,2.4073,2.4076,0,0,0,0,0,0,0,0,0,0,0,0,0,2.3912,2.3915,2.4033,2.4033,2.4034,2.4075,2.4076,2.4076,2.4034,2.4032,2.403,2.4029,2.407,2.4073,2.4076,0,0,0,0,0,0,0,0,0,0,0,0,0,2.3961,2.3916,2.4033,2.4018,2.4017,2.4075,2.4076,2.4076,2.4035,2.4032,2.403,2.4028,2.4069,2.4073,2.4077,2.415,0,0,2.4089,2.409,0,0,0,0,0,0,0,0,2.3958,2.3965,2.402,2.4019,2.4018,2.4047,2.4048,2.4101,2.4035,2.4028,2.4029,2.4026,2.4065,2.4069,2.4082,2.4152,2.4154,2.4089,2.4091,2.4093,2.4094,0,0,0,0,0,0,0,2.3955,2.3963,2.4049,2.402,2.402,2.4008,2.4012,2.4058,2.406,2.4028,2.4026,2.4031,2.4064,2.4078,2.4083,2.4155,2.4089,2.4092,2.4095,2.4096,2.4284,2.4287,0,0,0,0,0,0,2.3953,2.3961,2.4048,2.4051,2.3981,2.4012,2.4017,2.404,2.4059,2.406,2.4033,2.4029,2.4073,2.4078,2.4084,2.4169,2.4093,2.4097,2.4099,2.4282,2.4285,2.4288,0,0,0,0,0,0,2.3951,2.3962,2.4046,2.4005,2.4015,2.4017,2.4043,2.4042,2.4057,2.4063,2.4062,2.4048,2.4071,2.4079,2.4134,2.417,2.4099,2.4102,2.4279,2.4283,2.4286,2.4341,0,0,0,0,0,0,2.3948,2.3961,2.399,2.4006,2.4017,2.4096,2.4046,2.4045,2.4064,2.4059,2.4077,2.4077,2.407,2.4128,2.4138,2.4174,2.4105,2.4275,2.4281,2.4285,2.4336,2.4347,2.4356,0,0,0,0,0,2.3944,2.4004,2.3992,2.4002,2.4053,2.4098,2.4105,2.4096,2.4067,2.4095,2.4099,2.4076,2.4165,2.4134,2.4144,2.4183,2.4273,2.4279,2.4285,2.4332,2.4345,2.4355,0,0,0,0,0,0,2.3992,2.4006,2.3992,2.406,2.4078,2.4091,2.4127,2.411,2.4136,2.4131,2.4118,2.4122,2.418,2.4187,2.4152,2.4254,2.4214,2.4222,2.4246,2.4259,2.4268,2.4264,2.4109,0,0,0,0,0,2.4011,2.4047,2.4057,2.4115,2.4125,2.4125,2.4144,2.4135,2.4154,2.4161,2.4169,2.4187,2.4218,2.4239,2.4269,2.4338,2.434,2.4369,2.4379,2.4387,2.4393,2.4427,2.444,2.4307,2.4307,2.4307,0,0,2.4049,2.4061,2.4085,2.4125,2.4138,2.4175,2.4131,2.4172,2.4198,2.4167,2.4219,2.4225,2.4244,2.4306,2.4334,2.4314,2.4431,2.4394,2.4401,2.4403,2.4435,2.4447,2.4458,2.4311,2.431,2.431,0,0,2.4137,2.4151,2.42,2.4214,2.4235,2.4234,2.4246,2.4261,2.4264,2.4316,2.4292,2.4323,2.4379,2.4392,2.4407,2.4499,2.4478,2.4509,2.4559,2.4592,2.4602,2.4611,2.4641,2.4653,2.4516,2.4516,2.4516,0,2.4182,2.4237,2.4227,2.4269,2.4286,2.426,2.4308,2.4322,2.4352,2.4363,2.4342,2.4409,2.442,2.4483,2.4506,2.4519,2.453,2.4506,2.4602,2.4611,2.4619,2.4648,2.4659,2.452,2.4519,2.4519,2.4519,0,2.4289,2.4327,2.4364,2.4393,2.4414,2.446,2.4455,2.4479,2.4468,2.4469,2.4521,2.4534,2.4564,2.4579,2.457,2.464,2.4627,2.4604,2.4563,2.4635,2.4662,2.4673,2.4524,2.4523,2.4522,2.4521,0,0,2.4408,2.443,2.4443,2.4455,2.4475,2.4504,2.4547,2.4577,2.4596,2.4617,2.4651,2.4698,2.4676,2.4693,2.4684,2.4714,2.4782,2.4687,2.4687,2.4702,2.4858,2.4873,2.4886,2.477,2.4772,2.4774,2.4855,0,2.4494,2.4569,2.4561,2.4632,2.4665,2.4641,2.4678,2.4693,2.4695,2.4723,2.4725,2.4758,2.4728,2.4737,2.4766,2.4768,2.4813,2.4763,2.4799,2.4801,2.4792,2.49,2.4917,2.4993,2.4866,2.4867,2.4869,0,2.4605,2.4629,2.4703,2.4716,2.473,2.4763,2.4789,2.4817,2.4833,2.4833,2.485,2.4837,2.4878,2.4839,2.4894,2.486,2.4875,2.4878,2.4881,2.4882,2.4837,2.4901,2.5017,2.5027,2.4885,2.4884,2.4883,0,2.468,2.4731,2.4781,2.4792,2.481,2.4834,2.4842,2.4856,2.4874,2.4897,2.4908,2.4935,2.4949,2.497,2.4963,2.4936,2.5019,2.498,2.5018,2.5018,2.5034,2.5033,2.5151,2.5049,2.5049,2.5048,2.5048,0,2.4775,2.482,2.4815,2.4845,2.4895,2.4885,2.4934,2.4939,2.4952,2.4982,2.4964,2.4992,2.4982,2.501,2.5005,2.505,2.5058,2.5056,2.5054,2.5056,2.5056,2.5064,2.5057,2.5051,2.5051,2.505,2.505,0,2.4866,2.4865,2.4917,2.493,2.4934,2.4969,2.4979,2.5007,2.5007,2.5045,2.5054,2.5054,2.5085,2.5081,2.5116,2.5113,2.5168,2.5161,2.5162,2.5159,2.5196,2.5191,2.5321,2.5337,2.5227,2.5228,2.5229,0,2.4926,2.496,2.4976,2.4994,2.5004,2.5035,2.5053,2.5045,2.5064,2.5085,2.511,2.5139,2.5162,2.5213,2.5215,2.5242,2.5233,2.5277,2.5237,2.5237,2.523,2.5227,2.5229,2.5284,2.5285,2.5286,2.5287,0,2.5031,2.5028,2.5055,2.5081,2.5102,2.5123,2.5141,2.5157,2.515,2.5173,2.5204,2.5222,2.5257,2.5286,2.531,2.5318,2.53,2.53,2.5309,2.5311,2.5309,2.5307,2.518,2.5296,2.5295,2.5295,2.5294,2.5294,2.5106,2.5134,2.5149,2.5178,2.5191,2.5208,2.5234,2.5238,2.5264,2.5292,2.5286,2.5321,2.5335,2.5366,2.5376,2.5402,2.5386,2.54,2.5403,2.5406,2.5409,2.5307,2.5407,2.5407,2.5406,2.5406,2.5406,0,2.5207,2.5215,2.5243,2.5268,2.5291,2.5274,2.5293,2.5313,2.5344,2.5359,2.5382,2.5417,2.5444,2.5449,2.5475,2.5495,2.5487,2.5501,2.5498,2.55,2.5424,2.5412,2.5507,2.5507,2.5507,2.5507,2.5507,2.5507,2.5262,2.5307,2.5306,2.5357,2.5365,2.5399,2.5411,2.5426,2.5437,2.5478,2.55,2.5503,2.5514,2.554,2.5564,2.5564,2.5573,2.559,2.5587,2.5516,2.5505,2.5496,2.5484,2.5593,2.5593,2.566,2.5661,2.5661]},{"header":{"parameterUnit":"m.s-1","parameterCategory":1,"la1":30.2991,"la2":30.254,"lo1":-89.0895,"lo2":-89.0444,"dy":0.0017,"dx":0.0017,"nx":28,"ny":28,"refTime":"2024-07-22T03:00:00:Z","depth":0,"parameterNumber":3,"parameterNumberName":"V-component_of_WINDS"},"data":[0,0,0,0,0,0,0,0,0,0,0,0,0,0,0,0,0,0,0,0,0,0,0,0,0,0,0,0,0,0,0,0,0,0,0,0,0,0,0,0,0,0,0,0,0,0,0,0,0,0,0,0,0,0,0,0,0,0,2.054,2.054,0,2.0613,2.0614,2.0615,2.0571,2.0569,2.0567,2.0565,2.0639,2.0642,2.0646,0,0,0,0,0,0,0,0,0,0,0,0,0,2.0359,2.0363,2.054,2.054,2.0541,2.0613,2.0614,2.0615,2.0571,2.0569,2.0566,2.0564,2.0637,2.0642,2.0647,0,0,0,0,0,0,0,0,0,0,0,0,0,2.0435,2.0364,2.0539,2.0528,2.0528,2.0613,2.0614,2.0615,2.0572,2.0568,2.0565,2.0562,2.0636,2.0642,2.0647,2.0747,0,0,2.0665,2.0668,0,0,0,0,0,0,0,0,2.0431,2.0442,2.0529,2.0529,2.0529,2.0579,2.0577,2.0659,2.0572,2.0555,2.0564,2.0561,2.0621,2.0628,2.0649,2.075,2.0753,2.0666,2.0669,2.0672,2.0674,0,0,0,0,0,0,0,2.0426,2.0439,2.0568,2.053,2.053,2.0519,2.0526,2.0593,2.0605,2.0556,2.0553,2.0563,2.0621,2.0643,2.065,2.0755,2.0666,2.0671,2.0675,2.0677,2.0938,2.0941,0,0,0,0,0,0,2.0422,2.0435,2.0566,2.0571,2.0471,2.0524,2.0533,2.0566,2.0604,2.0607,2.0565,2.056,2.0635,2.0644,2.0653,2.077,2.0672,2.0678,2.0681,2.0935,2.0939,2.0943,0,0,0,0,0,0,2.0418,2.0434,2.0563,2.0502,2.0517,2.0531,2.0569,2.057,2.0592,2.0611,2.0613,2.0586,2.0633,2.0645,2.0723,2.0772,2.068,2.0686,2.0931,2.0936,2.0941,2.1007,0,0,0,0,0,0,2.0413,2.0433,2.0472,2.0503,2.0521,2.0634,2.0572,2.0573,2.0602,2.0597,2.0631,2.0634,2.0631,2.0715,2.0729,2.0779,2.069,2.0927,2.0933,2.0939,2.1,2.1013,2.1025,0,0,0,0,0,2.0407,2.0488,2.0474,2.049,2.057,2.0637,2.0647,2.0642,2.0607,2.0645,2.0657,2.0633,2.0764,2.0723,2.0739,2.0791,2.0923,2.0931,2.0939,2.0995,2.1011,2.1024,0,0,0,0,0,0,2.0462,2.0492,2.0477,2.057,2.0601,2.0629,2.0678,2.066,2.0701,2.0694,2.0687,2.0695,2.0777,2.0792,2.0745,2.0888,2.0838,2.0849,2.0875,2.0891,2.0903,2.0897,2.0695,0,0,0,0,0,2.0485,2.0537,2.056,2.064,2.0656,2.0664,2.0693,2.0687,2.0719,2.0732,2.0749,2.078,2.0828,2.086,2.0906,2.1002,2.1008,2.1045,2.1057,2.1067,2.1077,2.1127,2.1143,2.0968,2.0968,2.0968,0,0,2.0533,2.0556,2.0589,2.0652,2.0675,2.0728,2.0676,2.0735,2.0774,2.074,2.0816,2.0829,2.0863,2.0951,2.099,2.0966,2.1126,2.1077,2.1085,2.1089,2.1136,2.1153,2.1167,2.0973,2.0972,2.0971,0,0,2.0648,2.0671,2.0739,2.0763,2.0799,2.0803,2.0819,2.085,2.0857,2.0933,2.0908,2.0954,2.1037,2.1062,2.1085,2.1207,2.1185,2.1222,2.1286,2.1334,2.1348,2.136,2.1402,2.1417,2.1231,2.1231,2.1232,0,2.0703,2.0783,2.0777,2.0837,2.0864,2.0836,2.0904,2.0928,2.0976,2.0995,2.0967,2.107,2.1091,2.1183,2.1212,2.1233,2.125,2.1218,2.1347,2.1359,2.137,2.141,2.1426,2.1236,2.1235,2.1235,2.1234,0,2.0848,2.0904,2.0955,2.1002,2.1035,2.1099,2.1101,2.1135,2.1126,2.1132,2.1208,2.1232,2.1281,2.1302,2.1294,2.1392,2.1375,2.1347,2.1297,2.1391,2.1428,2.1443,2.1241,2.124,2.1239,2.1238,0,0,2.1001,2.1042,2.1061,2.1081,2.1117,2.1159,2.1221,2.1269,2.1297,2.1331,2.1382,2.1452,2.1426,2.1452,2.1446,2.1489,2.1581,2.1455,2.1456,2.1477,2.1689,2.1709,2.1727,2.1567,2.157,2.1572,2.1686,0,2.1117,2.1226,2.122,2.1322,2.1372,2.1344,2.1398,2.1425,2.1433,2.1475,2.1483,2.1533,2.1495,2.151,2.1551,2.1561,2.1624,2.1553,2.1613,2.1615,2.1605,2.1747,2.177,2.1875,2.17,2.1703,2.1705,0,2.1267,2.1305,2.1412,2.1438,2.1459,2.1507,2.1549,2.1591,2.162,2.1623,2.1651,2.1638,2.1698,2.1647,2.173,2.1682,2.1706,2.1714,2.1718,2.1723,2.1666,2.1755,2.1909,2.1925,2.1728,2.1726,2.1724,0,2.1366,2.1444,2.1517,2.1535,2.1569,2.1603,2.1618,2.1645,2.1673,2.1709,2.1727,2.177,2.1794,2.1827,2.1824,2.1787,2.1908,2.1856,2.191,2.191,2.1937,2.1935,2.2096,2.1954,2.1954,2.1953,2.1953,0,2.1496,2.1562,2.1562,2.1607,2.1679,2.1671,2.1743,2.1754,2.1777,2.1823,2.1802,2.1845,2.1839,2.1882,2.1881,2.1948,2.196,2.1962,2.1961,2.1964,2.1963,2.1979,2.1972,2.1957,2.1957,2.1956,2.1955,0,2.1619,2.1622,2.1699,2.1724,2.1731,2.1783,2.1804,2.1845,2.185,2.1908,2.1921,2.1929,2.1978,2.1979,2.2035,2.2034,2.2117,2.2107,2.2107,2.2105,2.2158,2.2153,2.2335,2.2357,2.2201,2.2202,2.2204,0,2.1701,2.1751,2.178,2.1809,2.1826,2.1874,2.1902,2.1896,2.1926,2.1962,2.1999,2.2046,2.2084,2.2163,2.2173,2.2216,2.2207,2.2267,2.2213,2.2214,2.2206,2.2203,2.2207,2.2278,2.228,2.2281,2.2282,0,2.1847,2.1845,2.1887,2.1929,2.1963,2.1996,2.2026,2.2051,2.2048,2.2083,2.2133,2.2161,2.2218,2.2265,2.2305,2.232,2.23,2.2299,2.2314,2.2317,2.2314,2.2315,2.2135,2.2295,2.2294,2.2293,2.2292,2.2292,2.1951,2.1993,2.202,2.2066,2.2088,2.2116,2.2156,2.2166,2.2207,2.2253,2.2247,2.2302,2.2328,2.238,2.2398,2.244,2.2419,2.244,2.2446,2.2451,2.2456,2.2308,2.2448,2.2447,2.2447,2.2447,2.2446,0,2.2094,2.2109,2.2152,2.2195,2.2231,2.2209,2.2241,2.2272,2.2321,2.2347,2.2384,2.244,2.2485,2.2498,2.254,2.2571,2.2563,2.2583,2.258,2.2583,2.2473,2.2456,2.2588,2.2588,2.2588,2.2588,2.2588,2.2588,2.2173,2.2242,2.2243,2.2323,2.2337,2.2391,2.2411,2.2436,2.2457,2.252,2.2557,2.2565,2.2585,2.2629,2.2668,2.267,2.2687,2.2709,2.2708,2.2605,2.2591,2.2578,2.2561,2.2713,2.2713,2.2814,2.2815,2.2816]}]]